sat.trackr.live / text

‹ back to catalog

STARLINK-35976

NORAD 66534 · 2025-265U

PAYLOAD ACTIVE UNKNOWN

§ Identity

Operator
Country
US
Launch date
2025-11-19
Launch site
AFETR
Launch vehicle
Mass (kg)
RCS (m²)

Purposes: comms

External: N2YO · Heavens-Above · Gunter

§ Orbital elements

Epoch: 2026-09-20T01:07:47.184096Z

Period
94.26 min
Inclination
43.0014°
Eccentricity
0.0001394
Mean motion
15.27631825 rev/d
Perigee alt
481.9 km
Apogee alt
483.9 km
Semi-major
6,861.0 km
B*
5.4428e-4
RAAN
260.6696°
Arg perigee
248.9966°
Mean anomaly
111.0737°
Rev number
4,683

§ Raw data

STARLINK-359761 66534U 25265U   26263.04707389  .00014769  00000+0  54428-3 0  99932 66534  43.0014 260.6696 0001394 248.9966 111.0737 15.27631825 46835

JSON: /api/v1/satellites/66534 · /tle

For live sub-satellite position, see the globe view (requires WebGL).

§ Visibility from observer

Set your observer location to see the next 7 days of passes ≥ 10°. The values pass through the URL so the page stays shareable.

No JS? Fill the form by hand. The geolocation button needs JavaScript.